Toledo Metcalf, OH

6:52 AM EDT on September 21, 2017 (GMT -0400)
Metcalf

Weather History for KTDZ - April, 2013

Change the Weather History Date:

Monday, April 22, 2013

  Actual Average (KTOL) Record (KTOL)
Temperature  
Mean Temperature 46 °F -  
Max Temperature 60 °F 61 °F 87 °F (1985)
Min Temperature 32 °F 40 °F 22 °F (1875)
Degree Days  
Heating Degree Days 19    
Moisture  
Dew Point 31 °F    
Average Humidity 60    
Maximum Humidity 85    
Minimum Humidity 31    
Precipitation  
Precipitation 0.00 in - - ()
Sea Level Pressure  
Sea Level Pressure 30.33 in    
Wind  
Wind Speed 6 mph (ENE)    
Max Wind Speed 18 mph    
Max Gust Speed 24 mph    
Visibility 10 miles    
Events      
Averages and records for this station are not official NWS values.
T = Trace of Precipitation, MM = Missing Value Source: NWS Daily Summary

Daily Weather History Graph

Daily Weather History Graph

Search for Another Location

Airport or City:

Trip Planner

Search our weather history database for the weather conditions in past years. The results will help you decide how hot, cold, wet, or windy it might be!

Date:

Astronomy

Apr. 22, 2013 Rise Set
Actual Time 6:43 AM EDT 8:22 PM EDT
Civil Twilight 6:13 AM EDT 8:51 PM EDT
Nautical Twilight 5:38 AM EDT 9:27 PM EDT
Astronomical Twilight 5:00 AM EDT 10:05 PM EDT
Moon 5:07 PM EDT (4/22) 4:39 AM EDT (4/22)
Length of Visible Light 14h 38m
Length of Day
13h 39m
Waxing Gibbous, 87% of the Moon is Illuminated
Apr 22
Waxing Gibbous
Apr 25
Full
May 2
Last Quarter
May 9
New
May 18
First Quarter

Hourly Weather History & Observations

Time (EDT) Temp. Windchill Dew Point Humidity Pressure Visibility Wind Dir Wind Speed Gust Speed Precip Events Conditions
12:53 AM 36.0 °F 31.1 °F 28.9 °F 76% 30.47 in 10.0 mi East 5.8 mph - N/A   Clear
1:53 AM 35.1 °F 30.1 °F 30.0 °F 82% 30.45 in 10.0 mi East 5.8 mph - N/A   Clear
2:53 AM 34.0 °F 31.0 °F 28.9 °F 82% 30.43 in 10.0 mi ENE 3.5 mph - N/A   Clear
3:53 AM 34.0 °F 31.0 °F 28.9 °F 82% 30.41 in 10.0 mi East 3.5 mph - N/A   Clear
4:53 AM 33.1 °F - 28.0 °F 82% 30.40 in 10.0 mi Calm Calm - N/A   Clear
5:53 AM 32.0 °F 28.7 °F 28.0 °F 85% 30.39 in 10.0 mi East 3.5 mph - N/A   Clear
6:53 AM 33.1 °F 28.7 °F 28.9 °F 85% 30.40 in 10.0 mi ENE 4.6 mph - N/A   Clear
7:53 AM 37.9 °F 35.5 °F 32.0 °F 79% 30.41 in 10.0 mi East 3.5 mph - N/A   Clear
8:53 AM 43.0 °F 39.5 °F 32.0 °F 65% 30.40 in 10.0 mi East 5.8 mph - N/A   Clear
9:53 AM 46.9 °F - 32.0 °F 56% 30.39 in 10.0 mi East 4.6 mph - N/A   Clear
10:53 AM 53.1 °F - 33.1 °F 47% 30.38 in 10.0 mi East 4.6 mph - N/A   Clear
11:53 AM 57.0 °F - 32.0 °F 39% 30.37 in 10.0 mi Calm Calm - N/A   Clear
12:53 PM 57.0 °F - 36.0 °F 45% 30.36 in 10.0 mi NE 8.1 mph - N/A   Clear
1:53 PM 59.0 °F - 32.0 °F 36% 30.33 in 10.0 mi NE 8.1 mph - N/A   Clear
2:53 PM 60.1 °F - 30.0 °F 32% 30.30 in 10.0 mi NE 10.4 mph - N/A   Clear
3:53 PM 57.9 °F - 28.0 °F 32% 30.27 in 10.0 mi ENE 11.5 mph - N/A   Clear
4:53 PM 57.9 °F - 27.0 °F 31% 30.27 in 10.0 mi ENE 11.5 mph - N/A   Clear
5:53 PM 55.9 °F - 27.0 °F 33% 30.26 in 10.0 mi ENE 13.8 mph 18.4 mph N/A   Clear
6:53 PM 54.0 °F - 35.1 °F 49% 30.25 in 10.0 mi ENE 12.7 mph - N/A   Clear
7:53 PM 51.1 °F - 34.0 °F 52% 30.21 in 10.0 mi East 18.4 mph 24.2 mph N/A   Clear
8:53 PM 48.0 °F - 35.1 °F 61% 30.22 in 10.0 mi East 8.1 mph - N/A   Clear
9:53 PM 46.0 °F 42.5 °F 35.1 °F 66% 30.22 in 10.0 mi East 6.9 mph - N/A   Clear
10:53 PM 45.0 °F 41.8 °F 35.1 °F 68% 30.20 in 10.0 mi ENE 5.8 mph - N/A   Clear
11:53 PM 43.0 °F - 35.1 °F 74% 30.20 in 10.0 mi Calm Calm - N/A   Clear